This demonstration page uses our WeatherBlox Daily Observations layout. Learn more.

Left ArrowRight Arrow

41.55636, -103.73856

Hourly Observations for February 17, 2016

Temp ( °F °C ) Dew Point ( °F °C ) Humidity (%) Winds ( mph kmh ) Pressure ( in mb ) Visibility ( mi km ) Precip ( " mm )
12:53 am 00:53 Clear 34 1.1 29 -1.7 82 82 WNW 3 6 30 1016 10 16.0934 N/A
1:53 am 01:53 Clear 32 undefined 28 -2.2 85 85 W 7 11 30.02 1017 10 16.0934 N/A
2:53 am 02:53 Clear 32 undefined 28 -2.2 85 85 WNW 8 13 30.02 1017 10 16.0934 N/A
3:53 am 03:53 Clear 31 -0.6 27 -2.8 85 85 N 10 17 30.02 1017 10 16.0934 N/A
4:53 am 04:53 Clear 30 -1.1 26 -3.3 85 85 N N/A 30.01 1016 10 16.0934 N/A
5:53 am 05:53 Clear 29 -1.7 26 -3.3 89 89 N N/A 30.04 1017 10 16.0934 N/A
6:53 am 06:53 Sunny 27 -2.8 24 -4.4 89 89 N N/A 30.05 1018 10 16.0934 N/A
7:53 am 07:53 Sunny 35 1.7 30 -1.1 82 82 NNE 6 9 30.04 1017 10 16.0934 N/A
8:53 am 08:53 Sunny 43 6.1 33 0.6 68 68 NNE 3 6 30.04 1017 10 16.0934 N/A
9:53 am 09:53 Sunny 47 8.3 31 -0.6 54 54 N N/A 30.02 1017 10 16.0934 N/A
10:53 am 10:53 Sunny 49 9.4 33 0.6 55 55 E 7 11 30.01 1016 10 16.0934 N/A
11:53 am 11:53 Sunny 51 10.6 35 1.7 54 54 E 7 11 29.96 1015 10 16.0934 N/A
12:53 pm 12:53 Sunny 55 12.8 36 2.2 49 49 ESE 7 11 29.91 1013 10 16.0934 N/A
1:53 pm 13:53 Sunny 62 16.7 28 -2.2 28 28 S 12 19 29.86 1011 10 16.0934 N/A
2:53 pm 14:53 Sunny 63 17.2 28 -2.2 27 27 S 10 17 29.83 1010 10 16.0934 N/A
3:53 pm 15:53 Sunny 63 17.2 30 -1.1 29 29 S 13 20 29.81 1010 10 16.0934 N/A
4:53 pm 16:53 Sunny 56 13.3 30 -1.1 37 37 SSE 10 17 29.81 1010 10 16.0934 N/A
5:53 pm 17:53 Clear 48 8.9 34 1.1 58 58 ESE 7 11 29.83 1010 10 16.0934 N/A
6:53 pm 18:53 Clear 47 8.3 34 1.1 61 61 ESE 10 17 29.83 1010 10 16.0934 N/A
7:53 pm 19:53 Clear 44 6.7 34 1.1 68 68 ESE 12 19 29.79 1009 10 16.0934 N/A
8:53 pm 20:53 Clear 44 6.7 34 1.1 68 68 E 15 24 29.75 1007 10 16.0934 N/A
9:53 pm 21:53 Clear 45 7.2 33 0.6 63 63 ESE 15 24 29.72 1007 10 16.0934 N/A
10:53 pm 22:53 Clear 44 6.7 33 0.6 65 65 ESE 9 15 29.7 1006 10 16.0934 N/A
11:53 pm 23:53 Clear 44 6.7 33 0.6 65 65 ENE 10 17 29.68 1005 10 16.0934 N/A

Powered by AerisWeather